Regional Weather Roundup
Issued by NWS

Home | Current Version | Previous Version | Text Only | Print | Product List | Glossary On
Versions: 1 2 3 4 5 6 7 8 9 10 11 12 13 14 15 16 17 18 19 20 21 22 23 24 25 26 27 28 29 30 31 32 33 34 35 36 37 38 39 40 41 42 43 44 45 46 47 48 49 50
000
ASUS43 KMPX 161901
RWRMN
WEATHER ROUNDUP FOR MINNESOTA
NATIONAL WEATHER SERVICE TWIN CITIES/CHANHASSEN MN
200 PM CDT WED APR 16 2014


NOTE: "FAIR" INDICATES FEW OR NO CLOUDS BELOW 12,000 FEET WITH NO
SIGNIFICANT WEATHER AND/OR OBSTRUCTIONS TO VISIBILITY. N/A MEANS
CURRENT SKY AND/OR WEATHER CONDITIONS ARE NOT AVAILABLE.

MNZ060>063-068>070-162000-
   Twin Cities Metro

CITY           SKY/WX    TMP DP  RH WIND       PRES   REMARKS
TWIN CITIES    CLOUDY    37  26  64 NE12      29.89S
ST PAUL        CLOUDY    37  26  64 VRB7      29.92F
CRYSTAL        CLOUDY    34  27  75 E13       29.90S WCI  25
EDEN PRAIRIE   CLOUDY    38  27  64 NE15      29.86F
LAKEVILLE      CLOUDY    39  27  60 NE14      29.85F
SOUTH ST PAUL  CLOUDY    40  27  59 E8        29.90S
LAKE ELMO      CLOUDY    36  30  80 E16       29.92F
$$
MNZ001>005-007-008-013>017-022>024-027-028-162000-
   Northwest Minnesota

CITY           SKY/WX    TMP DP  RH WIND       PRES   REMARKS
BEMIDJI        CLOUDY    34  14  44 E15       30.09S WCI  24
HALLOCK        CLOUDY    36   7  30 NE14G22   30.20S
ROSEAU         SUNNY     34   9  35 NE17G24   30.20S WCI  23
WARROAD        SUNNY     30  12  47 NE17      30.22R WCI  18
THIEF RVR FALL SUNNY     37   7  28 NE16G25   30.13S
CROOKSTON      SUNNY     39   9  28 E15G25    30.13S
FOSSTON        CLOUDY    39  18  41 NE14      30.08F
DETROIT LAKES  CLOUDY    32  25  74 NE22G28   30.04R WCI  19
MOORHEAD       CLOUDY    36  28  75 E16       30.06S
PARK RAPIDS    CLOUDY    29  22  75 NE16G24   30.04S WCI  17
$$
MNZ006-009>011-018-025>026-162000-
   North Central Minnesota

CITY           SKY/WX    TMP DP  RH WIND       PRES   REMARKS
BAUDETTE       SUNNY     35   4  27 NE14      30.18S WCI  26
FLAG ISLAND    SUNNY     28   7  40 N15       30.22S WCI  17
INTL FALLS     MOSUNNY   34   6  31 NE10G20   30.17F WCI  26
WASKISH        MOSUNNY   39   9  28 E12G20    30.13S
BIG FORK       CLOUDY    36  10  35 NE9G16    30.13R
LONGVILLE      LGT SNOW  28  21  74 NE10G20   30.08S WCI  19
GRAND RAPIDS   CLOUDY    27  21  80 NE14G20   30.10F WCI  15
CRANE LAKE     PTSUNNY   37   9  30 NE8       30.19S
ORR            CLOUDY    36   1  23 E8        30.12S
COOK           CLOUDY    34  10  37 E8        30.15R WCI  27
$$
MNZ012-019>021-037-162000-
   Northeast Minnesota

CITY           SKY/WX    TMP DP  RH WIND       PRES   REMARKS
DULUTH         SNOW      26  22  84 E20G31    30.10S VSB 1/2 WCI  12
ELY            CLOUDY    30   7  37 E8        30.15S WCI  23
HIBBING        LGT SNOW  29  19  66 E15G22    30.13S WCI  18
EVELETH        MIX PCPN  28  19  69 E10G16    30.15S WCI  19
DULUTH HARBOR  SNOW      28  27  93 NE23      30.14F VSB 1/2 WCI  14
TWO HARBORS    LGT SNOW  25  19  80 E14       30.15R VSB 3/4 WCI  13
SILVER BAY     LGT SNOW  25  25 100 E10G16    30.18R WCI  15
GRAND MARAIS     N/A     30  20  66 E14G23    30.26F WCI  19
G MARAIS ARPRT CLOUDY    27   3  36 E6        30.19S WCI  20
$$
MNZ029>031-032-039>041-046>048-054>057-064-162000-
   West Central Minnesota

CITY           SKY/WX    TMP DP  RH WIND       PRES   REMARKS
FERGUS FALLS   CLOUDY    30  21  69 E20G26    29.98R WCI  18
WHEATON        LGT SNOW  34  30  86 NE20G26   29.98R WCI  22
MORRIS         LGT SNOW  28  27  93 NE22G30   29.91S VSB 3/4 WCI  15
ALEXANDRIA     SNOW      28  24  85 NE21      29.94S VSB 1/4 WCI  15
ELBOW LAKE     LGT SNOW  29  26  87 NE16G25   29.96R WCI  17
WADENA         LGT SNOW  27  23  86 NE16      30.00S WCI  14
GLENWOOD       SNOW      27  27 100 NE22      29.92S VSB 1/4 WCI  12
APPLETON       HVY SNOW  30  28  93 NE21G28   29.89R VSB 1/4 WCI  17
BENSON         SNOW      28  27  93 E17G26    29.89S VSB 1/2 WCI  16
ORTONVILLE     CLOUDY    28  27  93 NE24G31   29.90R WCI  14
MADISON        LGT SNOW  34  30  86 NE18G25   29.87R WCI  23
WILLMAR        LGT SNOW  30  28  93 NE17      29.87S WCI  18
$$
MNZ033>034-036-042>043-049>051-058-059-162000-
   Central Minnesota

CITY           SKY/WX    TMP DP  RH WIND       PRES   REMARKS
ST CLOUD       SNOW      29  26  89 NE13G23   29.94R VSB 1/4 WCI  19
SAUK CENTRE    SNOW      27  26  94 NE20G26   29.94S VSB 1/2 WCI  14
PAYNESVILLE    SNOW      29  27  93 NE15G23   29.90F VSB 1/2 WCI  17
AITKIN         LGT SNOW  30  25  80 NE14G20   30.03S WCI  20
PINE RIVER     LGT SNOW  28  23  80 NE12G22   30.08R WCI  18
BRAINERD       SNOW      32  24  72 NE15G21   30.02R VSB 1/2 WCI  22
STAPLES        LGT SNOW  27  25  93 NE10G16   30.01R WCI  17
LONG PRAIRIE   CLOUDY    27  25  93 NE12G18   29.96R VSB 1/2 WCI  16
LITTLE FALLS   SNOW      28  27  93 NE6       29.99R VSB 1/4 WCI  22
LITCHFIELD     SNOW      30  30 100 NE15      29.88S VSB 1/4 WCI  19
BUFFALO        SNOW      31  28  90 NE12G18   29.91S VSB 1/2 WCI  22
MAPLE LAKE     SNOW      31  30  96 NE10      29.91S VSB 1/2 WCI  22
$$
MNZ037-044-045-052-053-162000-
   East Central Minnesota

CITY           SKY/WX    TMP DP  RH WIND       PRES   REMARKS
PRINCETON      SNOW      30  28  93 NE12      29.96R VSB 1/4 WCI  21
MORA           SNOW      30  27  86 NE12G20   30.01R VSB 1/4 WCI  21
CAMBRIDGE      SNOW      30  25  80 NE8       29.95R VSB 1/4 WCI  23
RUSH CITY      LGT SNOW  30  28  92 NE10G18   29.99S VSB 1   WCI  21
MOOSE LAKE     SNOW      28  27  93 NE13G21   30.04F VSB 1/2 WCI  18
HINCKLEY       SNOW      30  28  93 NE12G21   30.01F VSB 1/4 WCI  21
CLOQUET        SNOW      27  25  93 E15G24    30.08F VSB 1/2 WCI  15
MCGREGOR       CLOUDY    30  27  86 NE15      30.05F VSB 1   WCI  19
$$
MNZ071>073-080-081-089-090-097-098-162000-
   Southwest Minnesota

CITY           SKY/WX    TMP DP  RH WIND       PRES   REMARKS
MONTEVIDEO     MIX PCPN  32  30  93 E23       29.86R WCI  19
GRANITE FALLS  LGT SNOW  32  31  94 N15       29.84R VSB 1   WCI  22
CANBY          LGT SNOW  31  30  94 NE15G21   29.85R VSB 3/4 WCI  20
MARSHALL       CLOUDY    34  30  86 E15       29.78R WCI  24
REDWOOD FALLS  LGT SNOW  34  32  92 E12       29.81S VSB 1   WCI  25
OLIVIA         SNOW      34  32  93 E12G20    29.82S VSB 1/4 WCI  25
PIPESTONE      DRIZZLE   34  34 100 NE15      29.72R WCI  24
WINDOM         RAIN      45  37  76 W16G23    29.74R
WORTHINGTON    CLOUDY    46  28  49 SW13G24   29.72R
JACKSON        CLOUDY    54  27  35 S17       29.72R
SLAYTON        LGT RAIN  34  34 100 NE14      29.75R WCI  24
$$
MNZ065>067-074>077-082>085-091>093-162000-
   South Central Minnesota

CITY           SKY/WX    TMP DP  RH WIND       PRES   REMARKS
MANKATO        CLOUDY    48  32  53 SE12      29.79S
NEW ULM        DRIZZLE   45  34  65 E9        29.76S
ST JAMES       CLOUDY    52  30  43 S10       29.75R
FAIRMONT       CLOUDY    54  30  40 S21G29    29.74R
GLENCOE        LGT SNOW  35  29  79 NE8       29.84R WCI  29
FARIBAULT      CLOUDY    48  28  46 E7        29.82F
OWATONNA       CLOUDY    50  32  50 SE17G29   29.80F
WASECA         CLOUDY    54  37  54 SE16G24   29.79F
ALBERT LEA     CLOUDY    57  34  41 S20G28    29.76F
$$
MNZ078>079-086>088-094>096-162000-
   Southeast Minnesota

CITY           SKY/WX    TMP DP  RH WIND       PRES   REMARKS
ROCHESTER      CLOUDY    49  33  54 SE23G33   29.85F
RED WING       CLOUDY    46  25  42 SE12G17   29.87F
STANTON        CLOUDY    47  30  51 E10       29.83F
DODGE CENTER   CLOUDY    52  32  46 S18G28    29.82F
WINONA         CLOUDY    54  32  43 S16G23    29.90F
AUSTIN         CLOUDY    54  34  47 S22G33    29.80F
PRESTON        CLOUDY    50  32  50 S30G39    29.84F
$$
ABBREVIATIONS USED IN REMARKS
   TC - TEMPERATURES IN CELSIUS
  WCI - WIND CHILL INDEX
   HX - HEAT INDEX
  VSB - VISIBILITY
$$


USA.gov is the U.S. government's official web portal to all federal, state and local government web resources and services.